#timestamp,LO_Frequency,Hit,StdDev 
1595581215.5,286047000.3,N
1595581235.4,286047000.1,N
1595581255.2,286047000.0,N
1595581275.1,286047000.5,N
1595581276.0,286047000.5,N
1595581295.8,286047000.4,N
1595581315.6,286047002.8,N
1595581335.5,286047000.5,N
1595581355.3,286047000.9,N
1595581375.1,286047000.1,N
1595581395.9,286047000.4,N
1595581415.7,286046999.7,N
1595581435.6,286046999.7,N
1595581455.4,286046999.7,N
1595581475.2,286047002.6,N
1595581495.1,286047001.9,N
1595581496.0,286047001.9,N
1595581515.8,286047002.4,N
1595581535.7,286047001.9,N
1595581555.5,286047002.3,N
1595581575.3,286047002.6,N
1595581595.2,286047002.5,N
1595581615.0,286047002.6,N
1595581615.9,286047002.6,N
1595581635.8,286047001.7,N
1595581655.6,286047001.8,N
1595581675.4,286047002.2,N
1595581695.3,286047002.4,N
1595581715.1,286047000.1,N
1595581735.8,286047002.2,N
1595581755.7,286046999.8,N
1595581775.5,286047001.8,N
1595581795.4,286047002.7,N
1595581815.2,286047002.0,N
1595581835.0,286047002.6,N
1595581835.9,286047002.6,N
1595581855.8,286047001.5,N
1595581875.6,286047002.6,N
1595581895.4,286047001.5,N
1595581915.3,286047001.5,N
1595581935.1,286047001.8,N
1595581955.9,286047001.8,N
1595581975.7,286047001.6,N
1595581995.5,286047002.1,N
1595582015.4,286047002.6,Y
1595582035.2,286047000.4,P
1595582055.1,286047001.0,N
1595582056.0,286047001.0,N
1595582075.8,286047000.3,N
1595582095.6,286047000.9,N
1595582115.5,286047000.9,N
1595582135.3,286047001.2,N
1595582155.2,286047001.2,N
1595582175.9,286047000.8,N
1595582195.7,286046998.5,Y
1595582215.6,286046998.7,P
1595582235.4,286046999.4,N
1595582255.2,286046999.5,N
1595582275.1,286046998.9,N
1595582276.0,286046998.9,N
1595582295.8,286046998.5,N
1595582315.7,286046998.7,N
1595582335.5,286046998.1,N
1595582355.3,286047001.2,N
1595582375.2,286046998.1,N
1595582395.0,286046998.8,N
1595582395.9,286046998.8,N
1595582415.8,286046999.1,N
1595582435.6,286046999.3,N
1595582455.4,286047001.2,N
1595582475.3,286047001.1,N
1595582495.1,286046998.3,N
1595582515.8,286046998.4,N
1595582535.7,286046999.2,N
1595582555.5,286046998.2,N
1595582575.4,286046998.5,N
1595582595.2,286046998.2,N
1595582615.0,286046998.6,N
1595582615.9,286046998.6,N
1595582635.8,286046998.9,N
1595582655.6,286047001.0,N
1595582675.5,286047000.7,N
1595582695.3,286047000.5,N
1595582715.1,286046998.1,N
1595582735.9,286046998.4,N
1595582755.7,286046998.6,N
1595582775.6,286046998.4,N
1595582795.4,286046998.3,N
1595582815.2,286046998.6,N
1595582835.1,286046998.5,N
1595582836.0,286046998.5,N
1595582855.8,286047001.0,N
1595582875.6,286047000.7,N
1595582895.5,286046998.7,N
1595582915.3,286046998.8,N
1595582935.2,286046998.8,N
1595582955.9,286046998.5,N
1595582975.7,286046999.3,N
1595582995.6,286046999.2,N
1595583015.4,286046998.7,N
1595583035.2,286046999.0,N
1595583055.1,286046998.3,N
1595583056.0,286046998.3,N
1595583075.8,286046996.7,Y
1595583095.7,286046998.4,P
1595583115.5,286046998.3,P
1595583135.3,286046998.6,P
1595583155.2,286047001.2,Y
1595583175.0,286047002.8,P
1595583175.9,286047002.8,N
1595583195.8,286047000.4,N
1595583215.6,286047002.6,N
1595583235.5,286047002.7,N
1595583255.3,286047000.4,N
1595583275.1,286047000.3,N
1595583295.9,286047000.0,N
1595583315.7,286047000.1,N
1595583335.5,286047000.5,N
1595583355.4,286046999.9,N
1595583375.2,286046999.7,N
1595583395.1,286047000.1,N
1595583396.0,286047000.1,N
1595583415.8,286047002.3,N
1595583435.6,286046999.8,N
1595583455.5,286047000.1,N
1595583475.3,286047002.8,N
1595583495.2,286046999.7,N
1595583515.9,286047002.8,N
1595583535.7,286047002.5,N
1595583555.6,286047002.4,N
1595583575.4,286047002.7,N
1595583595.3,286047002.7,N
1595583615.1,286047002.5,N
1595583616.0,286047002.5,N
1595583635.8,286046999.8,N
1595583655.7,286047002.3,N
1595583675.5,286047002.7,N
1595583695.3,286046999.8,N
1595583715.2,286047002.7,N
1595583735.0,286047002.6,N
1595583735.9,286047002.6,N
1595583755.8,286047002.8,N
1595583775.6,286047000.1,N
1595583795.4,286046999.7,N
1595583815.3,286047000.5,N
1595583835.1,286046999.9,N
1595583855.9,286047000.1,N
1595583875.7,286047004.3,Y
1595583895.5,286047000.1,P
1595583915.4,286047000.1,N
1595583935.2,286046999.7,N
1595583955.1,286046999.8,N
1595583956.0,286046999.8,N
1595583975.8,286046999.8,N
1595583995.6,286046999.9,N
1595584015.5,286047000.2,N
1595584035.3,286047000.2,N
1595584055.2,286047000.5,N
1595584075.9,286047000.5,N
1595584095.7,286047000.3,N
1595584115.6,286047000.5,N
1595584135.4,286046999.0,N
1595584155.2,286046998.9,N
1595584175.1,286046999.3,N
1595584176.0,286046999.3,N
1595584195.8,286046999.3,N
1595584215.7,286046998.2,Y
1595584235.5,286046999.0,P
1595584255.4,286046998.8,N
1595584275.2,286046999.4,N
1595584295.0,286046999.4,N
1595584295.9,286046999.4,N
1595584315.8,286046999.4,N
1595584335.6,286046996.6,Y
1595584355.5,286046996.7,P
1595584375.3,286046999.5,N
1595584395.1,286046998.6,N
1595584415.9,286046999.2,N
1595584435.7,286046996.9,Y
1595584455.6,286046998.4,P
1595584475.4,286046999.3,P
1595584495.2,286046996.8,P
1595584515.1,286046997.3,N
1595584516.0,286046997.3,N
1595584535.8,286046997.2,Y
1595584555.7,286046998.7,P
1595584575.5,286046999.3,N
1595584595.3,286046999.3,N
1595584615.2,286046998.2,Y
1595584635.0,286047000.3,P
1595584635.9,286047000.3,N
1595584655.8,286047000.3,N
1595584675.6,286047000.2,N
1595584695.4,286046999.9,N
1595584715.3,286047000.6,N
1595584735.1,286047001.2,N
1595584755.9,286046998.1,Y
1595584775.7,286046999.9,P
1595584795.5,286047001.1,P
